Date String (YYYY-MM-DD hh:mm:ss) UTC,Instrument flags,Ambient pressure (hPa),Sample flow (lpm),Bypass flow (lpm),Sample temperature (°C),Ambient temperature (°C),ASC tube jacket temperature (°C),LED temperature (°C),Box temperature (°C),Sample RH (%),Span deviation,Mass concentration (μg/m³),Mass concentration (μg/m³),Mass concentration (μg/m³)
DateTimeUTC,F1_M11,P_M11,Q1_M11,Q2_M11,T1_M11,T2_M11,T3_M11,T4_M11,T5_M11,U1_M11,ZSPAN_M11,X0_M11,X2_M11,X1_M11
2022-03-26 23:00:00,,0821.9,4.99,0.00,29.6,27.7,00.0,38.6,31.3,07.8,0000.0,0006.82,0002.46,0001.26
2022-03-26 23:01:00,,0821.9,4.99,0.00,29.6,27.9,00.0,38.5,31.4,08.0,0000.0,0006.81,0002.47,0001.26
2022-03-26 23:02:00,,0822.0,5.00,0.00,29.6,28.2,00.0,38.6,31.4,07.7,0000.0,0006.81,0002.47,0001.26
2022-03-26 23:03:00,,0821.9,5.02,0.00,29.7,28.4,00.0,38.6,31.5,07.9,0000.0,0006.53,0002.52,0001.25
2022-03-26 23:04:00,,0821.8,4.99,0.00,29.7,28.5,00.0,38.6,31.5,07.8,0000.0,0006.90,0002.59,0001.25
2022-03-26 23:05:00,,0821.9,4.99,0.00,29.7,28.6,00.0,38.6,31.6,07.6,0000.0,0006.80,0002.58,0001.25
2022-03-26 23:06:00,,0821.9,5.00,0.00,29.8,28.7,00.0,38.6,31.6,07.5,0000.0,0006.49,0002.48,0001.24
2022-03-26 23:07:00,,0822.1,5.01,0.00,29.8,28.8,00.0,38.6,31.7,07.5,0000.0,0006.37,0002.44,0001.22
2022-03-26 23:08:00,,0822.1,4.99,0.00,29.9,28.9,00.0,38.6,31.7,07.5,0000.0,0006.49,0002.40,0001.21
2022-03-26 23:09:00,,0822.1,4.99,0.00,29.9,28.9,00.0,38.7,31.8,07.5,0000.0,0006.38,0002.41,0001.21
2022-03-26 23:10:00,,0822.0,5.02,0.00,29.9,29.0,00.0,38.7,31.8,07.5,0000.0,0006.01,0002.39,0001.21
2022-03-26 23:11:00,,0822.0,5.00,0.00,30.0,29.1,00.0,38.7,31.9,07.4,0000.0,0007.29,0002.40,0001.21
2022-03-26 23:12:00,,0821.9,4.99,0.00,30.0,28.8,00.0,38.8,31.8,07.4,0000.0,0007.38,0002.44,0001.20
2022-03-26 23:13:00,,0821.9,5.01,0.00,29.9,26.6,00.0,38.8,31.3,07.3,0000.0,0007.38,0002.42,0001.19
2022-03-26 23:14:00,,0822.0,5.01,0.00,29.7,25.2,00.0,38.8,31.0,07.5,0000.0,0006.99,0002.37,0001.18
2022-03-26 23:15:00,,0821.9,4.99,0.00,29.6,25.5,00.0,38.7,31.0,07.5,0000.0,0006.59,0002.30,0001.16
2022-03-26 23:16:00,,0822.0,5.01,0.00,29.5,26.0,00.0,38.6,31.0,07.4,0000.0,0006.58,0002.30,0001.13
2022-03-26 23:17:00,,0821.9,4.99,0.00,29.5,26.5,00.0,38.6,31.1,07.3,0000.0,0006.65,0002.31,0001.12
2022-03-26 23:18:00,,0821.9,5.00,0.00,29.5,27.0,00.0,38.6,31.2,07.5,0000.0,0006.59,0002.31,0001.12
2022-03-26 23:19:00,,0821.9,5.02,0.00,29.5,27.4,00.0,38.5,31.3,07.5,0000.0,0006.33,0002.30,0001.11
2022-03-26 23:20:00,,0822.0,4.99,0.00,29.6,27.7,00.0,38.5,31.3,07.5,0000.0,0006.27,0002.27,0001.10
2022-03-26 23:21:00,,0821.9,5.00,0.00,29.6,28.0,00.0,38.5,31.4,07.7,0000.0,0006.08,0002.25,0001.09
2022-03-26 23:22:00,,0821.9,5.01,0.00,29.6,28.2,00.0,38.5,31.4,07.3,0000.0,0004.86,0002.26,0001.10
2022-03-26 23:23:00,,0821.8,5.00,0.00,29.7,28.4,00.0,38.6,31.5,07.3,0000.0,0004.85,0002.22,0001.09
2022-03-26 23:24:00,,0821.8,4.99,0.00,29.7,28.5,00.0,38.6,31.6,07.2,0000.0,0004.71,0002.21,0001.08
2022-03-26 23:25:00,,0821.8,4.99,0.00,29.7,28.7,00.0,38.6,31.6,07.2,0000.0,0004.74,0002.22,0001.09
2022-03-26 23:26:00,,0821.9,5.01,0.00,29.8,28.8,00.0,38.6,31.6,07.0,0000.0,0004.58,0002.19,0001.10
2022-03-26 23:27:00,,0821.8,5.01,0.00,29.8,28.9,00.0,38.6,31.6,07.2,0000.0,0004.55,0002.17,0001.11
2022-03-26 23:28:00,,0821.9,5.00,0.00,29.8,28.9,00.0,38.6,31.7,07.1,0000.0,0004.43,0002.13,0001.11
2022-03-26 23:29:00,,0822.1,5.01,0.00,29.9,29.0,00.0,38.7,31.7,06.9,0000.0,0004.55,0002.17,0001.11
2022-03-26 23:30:00,,0822.0,4.99,0.00,29.9,29.1,00.0,38.7,31.8,06.9,0000.0,0005.11,0002.20,0001.11
2022-03-26 23:31:00,,0822.0,5.00,0.00,30.0,29.2,00.0,38.7,31.8,06.9,0000.0,0005.13,0002.24,0001.12
2022-03-26 23:32:00,,0822.0,5.00,0.00,30.0,28.4,00.0,38.8,31.7,07.1,0000.0,0005.26,0002.28,0001.13
2022-03-26 23:33:00,,0822.0,5.00,0.00,29.8,26.0,00.0,38.7,31.1,07.2,0000.0,0005.16,0002.22,0001.11
2022-03-26 23:34:00,,0822.0,4.99,0.00,29.7,25.2,00.0,38.7,30.9,07.2,0000.0,0005.17,0002.24,0001.12
2022-03-26 23:35:00,,0822.0,5.00,0.00,29.6,25.6,00.0,38.7,31.0,07.5,0000.0,0005.08,0002.21,0001.12
2022-03-26 23:36:00,,0822.1,5.00,0.00,29.5,26.1,00.0,38.6,31.0,07.4,0000.0,0004.95,0002.16,0001.12
2022-03-26 23:37:00,,0822.1,5.00,0.00,29.5,26.7,00.0,38.6,31.1,07.4,0000.0,0004.90,0002.14,0001.11
2022-03-26 23:38:00,,0822.1,4.99,0.00,29.5,27.1,00.0,38.5,31.2,07.6,0000.0,0005.13,0002.22,0001.12
2022-03-26 23:39:00,,0822.1,5.01,0.00,29.5,27.5,00.0,38.5,31.3,07.8,0000.0,0005.36,0002.31,0001.13
2022-03-26 23:40:00,,0822.1,5.00,0.00,29.6,27.8,00.0,38.5,31.4,07.8,0000.0,0005.47,0002.36,0001.15
2022-03-26 23:41:00,,0822.1,4.99,0.00,29.6,28.1,00.0,38.5,31.4,07.8,0000.0,0005.33,0002.41,0001.16
2022-03-26 23:42:00,,0822.0,5.01,0.00,29.6,28.3,00.0,38.5,31.5,07.8,0000.0,0006.03,0002.51,0001.17
2022-03-26 23:43:00,,0822.0,4.99,0.00,29.7,28.5,00.0,38.5,31.5,07.6,0000.0,0006.83,0002.50,0001.17
2022-03-26 23:44:00,,0822.1,5.00,0.00,29.7,28.6,00.0,38.6,31.6,07.4,0000.0,0007.24,0002.57,0001.18
2022-03-26 23:45:00,,0822.1,5.00,0.00,29.8,28.7,00.0,38.6,31.6,07.4,0000.0,0007.79,0002.58,0001.18
2022-03-26 23:46:00,,0822.1,4.99,0.00,29.8,28.8,00.0,38.6,31.7,07.5,0000.0,0007.84,0002.61,0001.20
2022-03-26 23:47:00,,0822.1,5.01,0.00,29.8,28.9,00.0,38.6,31.7,07.6,0000.0,0007.89,0002.65,0001.22
2022-03-26 23:48:00,,0822.1,4.99,0.00,29.9,29.0,00.0,38.7,31.8,07.6,0000.0,0008.15,0002.69,0001.23
2022-03-26 23:49:00,,0822.2,4.99,0.00,29.9,29.0,00.0,38.7,31.8,07.8,0000.0,0008.12,0002.63,0001.22
2022-03-26 23:50:00,,0822.2,5.02,0.00,30.0,29.1,00.0,38.7,31.8,07.7,0000.0,0008.13,0002.61,0001.22
2022-03-26 23:51:00,,0822.2,5.00,0.00,30.0,28.7,00.0,38.7,31.7,07.9,0000.0,0008.28,0002.66,0001.23
2022-03-26 23:52:00,,0822.2,5.00,0.00,29.9,26.5,00.0,38.7,31.4,08.0,0000.0,0008.28,0002.62,0001.23
2022-03-26 23:53:00,,0822.1,4.99,0.00,29.7,25.3,00.0,38.7,31.1,07.9,0000.0,0007.92,0002.53,0001.23
2022-03-26 23:54:00,,0822.1,5.00,0.00,29.6,25.6,00.0,38.7,31.1,07.5,0000.0,0007.58,0002.57,0001.24
2022-03-26 23:55:00,,0822.2,5.01,0.00,29.6,26.1,00.0,38.6,31.1,07.7,0000.0,0007.24,0002.58,0001.25
2022-03-26 23:56:00,,0822.2,4.99,0.00,29.5,26.6,00.0,38.6,31.2,07.8,0000.0,0006.66,0002.60,0001.25
2022-03-26 23:57:00,,0822.2,5.00,0.00,29.6,27.0,00.0,38.6,31.3,07.7,0000.0,0006.66,0002.61,0001.25
2022-03-26 23:58:00,,0822.1,5.02,0.00,29.6,27.4,00.0,38.5,31.3,07.7,0000.0,0006.58,0002.59,0001.24
2022-03-26 23:59:00,,0822.1,4.98,0.00,29.6,27.8,00.0,38.5,31.4,07.7,0000.0,0006.49,0002.67,0001.25
